Location: Phoenix
(33.4480°N, 112.0730°W)
Time: 08:50:30
(UTC-07:00)

ISS - All Passes

Search period start: 27 May 2015 00:00
Search period end: 06 June 2015 00:00
Orbit: 399 x 404 km, 51.6° (Epoch: 27 May)

Date Brightness Start Highest point End Pass type
(mag) Time Alt. Az. Time Alt. Az. Time Alt. Az.
27 May - 05:48:16 10° NNW 05:51:12 30° NE 05:54:09 10° ESE daylight
27 May - 07:25:06 10° W 07:27:28 18° SW 07:29:47 10° S daylight
27 May - 22:24:08 10° SW 22:27:22 88° NNW 22:30:37 10° NE night (unlit)
28 May - 00:03:20 10° NW 00:04:14 11° NNW 00:05:04 10° NNW visible
28 May - 04:55:35 10° N 04:57:48 17° NNE 05:00:04 10° ENE daylight
28 May - 06:31:16 10° WNW 06:34:22 41° SW 06:37:27 10° SSE daylight
28 May - 21:31:11 10° SSW 21:34:11 37° SE 21:37:14 10° ENE night (unlit)
28 May - 23:08:25 10° WNW 23:10:44 18° NNW 23:13:01 10° NNE visible
29 May - 04:03:43 10° NNE 04:04:17 10° NNE 04:04:57 10° NE visible
29 May - 05:37:55 10° NW 05:41:11 82° NE 05:44:26 10° SE daylight
29 May - 20:38:56 10° S 20:41:04 17° SE 20:43:18 10° E night (unlit)
29 May - 22:14:22 10° WSW 22:17:19 32° NW 22:20:17 10° NNE night (unlit)
30 May - 04:44:51 10° NNW 04:47:54 36° NE 04:50:57 10° ESE visible
30 May - 06:22:04 10° W 06:24:06 15° SW 06:26:03 10° SSW daylight
30 May - 21:20:48 10° SW 21:24:00 71° NW 21:27:15 10° NE visible
31 May - 03:52:03 10° NNW 03:54:29 19° NNE 03:56:58 10° E visible
31 May - 05:27:59 10° WNW 05:30:59 33° SW 05:33:56 10° SSE daylight
31 May - 20:27:41 10° SSW 20:30:47 46° SE 20:33:55 10° ENE visible
31 May - 22:05:19 10° WNW 22:07:24 16° NNW 22:09:26 10° N visible
01 Jun - 02:59:45 10° N 03:00:57 12° NNE 03:02:15 10° NE visible
01 Jun - 04:34:31 10° NW 04:37:47 81° SW 04:41:02 10° SE visible
01 Jun - 19:35:11 10° S 19:37:38 20° SE 19:40:07 10° ENE daylight
01 Jun - 21:11:05 10° W 21:13:56 27° NW 21:16:46 10° NNE visible
02 Jun - 03:41:21 10° NNW 03:44:29 43° NE 03:47:36 10° ESE visible
02 Jun - 05:19:05 10° W 05:20:38 13° SW 05:22:04 10° SSW daylight
02 Jun - 20:17:22 10° WSW 20:20:34 58° NW 20:23:46 10° NE visible
03 Jun - 02:48:27 10° NNW 02:51:04 22° NE 02:53:43 10° E visible
03 Jun - 04:24:39 10° WNW 04:27:29 27° SW 04:30:17 10° S visible
03 Jun - 19:24:07 10° SSW 19:27:16 58° SE 19:30:28 10° NE daylight
03 Jun - 21:02:09 10° WNW 21:03:58 14° NNW 21:05:44 10° N visible
04 Jun - 01:55:57 10° N 01:57:32 13° NNE 01:59:12 10° ENE visible
04 Jun - 03:31:03 10° NW 03:34:16 66° SW 03:37:29 10° SE visible
04 Jun - 18:31:24 10° S 18:34:04 24° SE 18:36:47 10° ENE daylight
04 Jun - 20:07:44 10° W 20:10:26 24° NW 20:13:08 10° NNE visible
05 Jun - 02:37:47 10° NW 02:40:58 52° NE 02:44:09 10° ESE night (unlit)
05 Jun - 04:16:25 10° WSW 04:17:04 10° SW 04:17:33 10° SW night (unlit)
05 Jun - 17:39:56 10° SE 17:40:54 11° SE 17:42:00 10° ESE daylight
05 Jun - 19:13:53 10° WSW 19:17:01 47° NW 19:20:10 10° NE daylight
